No particular awareness of the weather is required.    There are no Weather-warnings


Meteo18 Weather Cam more information Meteo18 Weather Cam


Thunder radar more information blitzortung!


Rain radar more information rain snow radar


Visit our other weather sites:

Template documentation
and downloads

And another site



Weather Underground History page Text

Daily Summary for October 16, 2017 Units:  English    Metric   Both
« Previous Day
Next Day »
Daily Weekly Monthly Yearly Custom
  High: Low: Average:
Temperature: 76.1 °F 58.5 °F 64.6 °F
Dew Point: 59.5 °F 55.8 °F 57.9 °F
Humidity: 91 % 55 % 80 %
Wind Speed: 1 mph -999.5 mph -16.3 mph
Wind Gust: 2 mph - -
Wind:- -
Pressure: 30.3 in 30.2 in -
Precipitation: 0 in    
Historical Graphs
 
 
Tabular Data for October 16, 2017
Time Temperature Dew Point Pressure Wind Wind Speed Wind Gust Humidity Rainfall Rate (Hourly)
18:12 76.1 °F 58.8 °F 30.2 in North -999.5 mph -998.7 mph 55 % 0 in
18:32 75 °F 58.8 °F 30.2 in Calm   -998.7 mph 57 % 0 in
18:37 74.3 °F 59 °F 30.2 in Calm   2 mph 59 % 0 in
18:42 73.6 °F 59.4 °F 30.2 in Calm   2 mph 61 % 0 in
18:47 73 °F 59.2 °F 30.2 in Calm   2 mph 62 % 0 in
18:52 72.3 °F 59 °F 30.2 in South 1 mph 1 mph 63 % 0 in
18:57 72 °F 59.2 °F 30.2 in Calm   1 mph 64 % 0 in
19:02 71.2 °F 59.4 °F 30.2 in Calm   1 mph 66 % 0 in
19:07 71.1 °F 59.5 °F 30.2 in Calm   1 mph 67 % 0 in
19:17 70.5 °F 59.4 °F 30.2 in Calm   1 mph 68 % 0 in
19:22 70.2 °F 59.2 °F 30.2 in Calm   1 mph 68 % 0 in
19:32 69.8 °F 59.2 °F 30.2 in Calm   1 mph 69 % 0 in
19:37 69.6 °F 59 °F 30.2 in Calm   1 mph 69 % 0 in
19:42 69.1 °F 58.8 °F 30.2 in Calm   1 mph 70 % 0 in
19:47 68.2 °F 58.8 °F 30.2 in Calm   1 mph 72 % 0 in
19:52 67.5 °F 58.5 °F 30.2 in Calm     73 % 0 in
19:57 67.1 °F 58.8 °F 30.2 in Calm   2 mph 75 % 0 in
20:02 67.5 °F 58.8 °F 30.2 in Calm   2 mph 74 % 0 in
20:07 67.5 °F 58.8 °F 30.2 in Calm   2 mph 74 % 0 in
20:12 67.3 °F 59 °F 30.2 in Calm   1 mph 75 % 0 in
20:17 66.6 °F 58.8 °F 30.2 in Calm   1 mph 76 % 0 in
20:22 66 °F 58.6 °F 30.2 in Calm   1 mph 77 % 0 in
20:27 65.8 °F 58.8 °F 30.2 in Calm   1 mph 78 % 0 in
20:32 65.5 °F 58.8 °F 30.2 in Calm     79 % 0 in
20:42 64.9 °F 58.6 °F 30.2 in Calm     80 % 0 in
20:47 64.6 °F 58.6 °F 30.2 in Calm     81 % 0 in
20:52 64 °F 58.1 °F 30.2 in Calm     81 % 0 in
20:57 63.7 °F 58.1 °F 30.2 in Calm     82 % 0 in
21:02 63.5 °F 58.3 °F 30.2 in Calm     83 % 0 in
21:12 63.5 °F 57.9 °F 30.2 in Calm     82 % 0 in
21:17 63.3 °F 58.1 °F 30.2 in Calm     83 % 0 in
21:22 63 °F 58.1 °F 30.2 in Calm     84 % 0 in
21:27 62.8 °F 57.9 °F 30.2 in Calm     84 % 0 in
21:32 62.6 °F 58.1 °F 30.2 in Calm     85 % 0 in
21:37 62.8 °F 58.3 °F 30.2 in Calm     85 % 0 in
21:42 62.6 °F 58.1 °F 30.2 in Calm     85 % 0 in
21:47 62.4 °F 57.9 °F 30.2 in Calm     85 % 0 in
21:52 62.2 °F 57.7 °F 30.2 in Calm     85 % 0 in
21:57 62.2 °F 57.9 °F 30.2 in Calm     86 % 0 in
22:02 62.1 °F 57.7 °F 30.2 in Calm     86 % 0 in
22:12 61.9 °F 57.6 °F 30.2 in Calm     86 % 0 in
22:17 61.3 °F 57.4 °F 30.2 in Calm     87 % 0 in
22:22 61 °F 57 °F 30.2 in Calm     87 % 0 in
22:32 61 °F 57.4 °F 30.2 in Calm     88 % 0 in
22:37 60.6 °F 57 °F 30.3 in Calm     88 % 0 in
22:42 60.4 °F 56.8 °F 30.3 in Calm     88 % 0 in
22:47 60.3 °F 57 °F 30.3 in Calm     89 % 0 in
22:52 60.1 °F 56.8 °F 30.3 in Calm     89 % 0 in
22:57 59.9 °F 56.7 °F 30.3 in Calm     89 % 0 in
23:02 59.5 °F 56.7 °F 30.3 in Calm     90 % 0 in
23:07 59.5 °F 56.7 °F 30.3 in Calm     90 % 0 in
23:12 59.5 °F 56.7 °F 30.3 in Calm     90 % 0 in
23:17 59.5 °F 56.7 °F 30.3 in Calm     90 % 0 in
23:22 59.4 °F 56.1 °F 30.3 in Calm     89 % 0 in
23:27 59.4 °F 56.5 °F 30.3 in Calm     90 % 0 in
23:32 59.4 °F 56.7 °F 30.3 in Calm     91 % 0 in
23:37 59.2 °F 56.3 °F 30.3 in Calm     90 % 0 in
23:42 58.8 °F 55.9 °F 30.3 in Calm     90 % 0 in
23:47 58.8 °F 56.1 °F 30.3 in Calm     91 % 0 in
23:52 58.5 °F 55.8 °F 30.3 in Calm     91 % 0 in
23:57 58.6 °F 55.9 °F 30.3 in Calm     91 % 0 in
Meteo18
Compliments of Weather Underground - 4 mb

Script developed by  Jim McMurry - jmcmurry@mwt.net Adapted for the template by  Wim van der Kuil - Leuven-Template.eu

You find our weather info also at:

European Weather Network

Weather Underground

Equipment we use:

Weather-station
Davis Vue

Weather-program
Meteohub

Weather-server
Raspberry PI 2 B+

Provider
1 and 1

Davis Vue

Meteohub

Raspberry PI 2 B+

1 and 1